SCP
0 0 0 0 0 0 0 0 0 0 0 0 0 0 0 0 0 0 0 0 0 0 0 0 0 0 0 0 0 0 0 0 0 0 0 0 0 0 0 0 0 0 0 0
0 0 0 0 0 0 0 0 0 0 0 0 0 0 0 0 0 0 0 0 0 0 0 0 0 0 0 0 0 0 0 0 0 0 0 0 0 0 0 0 0 0 0 0
0 0 0 0 0 0 0 0 0 0 0 0 0 0 0 0 0 0 0 0 0 0 0 0 0 0 0 0 0 0 0 0 0 0 0 0 0 0 0 0 0 0 0 0
0 0 0 0 0 0 0 0 0 0 0 0 0 0 0 0 0 0 0 0 0 0 0 0 0 0 0 0 0 0 0 0 0 0 0 0 0 0 0 0 0 0 0 0
0 0 0 0 0 0 0 0 0 0 0 0 0 0 0 0 0 0 0 0 0 0 0 0 0 0 0 0 0 0 0 0 0 0 0 0 0 0 0 0 0 0 0 0
0 0 0 0 0 0 0 0 0 0 0 0 0 0 0 0 0 0 0 0 0 0 0 0 0 0 0 0 0 0 0 0 0 0 0 0 0 0 0 0 0 0 0 0
0 0 0 0 0 0 0 0 0 0 0 0 0 0 0 0 0 0 0 0 0 0 0 0 0 0 0 0 0 0 0 0 0 0 0 0 0 0 0 0 -0 -0 0 0
0 0 0 0 0 0 0 0 0 0 0 0 0 0 -0 -0 0 0 0 0 0 0 0 0 0 0 0 0 0 0 0 0 0 0 0 0 0 0 -0 -0 -0 -0 0 -0
0 0 0 0 0 0 0 0 0 0 0 0 0 0 0 0 0 0 0 0 0 0 0 0 0 0 0 0 0 0 0 0 0 0 0 0 0 0 0 0 -0 -0 -0 -0
0 0 0 0 0 0 0 0 0 0 0 0 0 0 0 0 0 0 0 -0 0 0 0 0 0 0 0 0 0 0 0 0 0 0 0 0 0 0 -0 -0 -0 -0 0 -0
0 0 0 0 0 0 0 0 0 0 0 0 0 0 0 0 0 0 0 0 0 0 0 0 0 0 0 0 0 0 0 0 0 0 0 0 0 0 0 -0 -0 -0 0 -0
0 0 0 0 0 0 0 0 0 0 0 0 0 0 0 0 0 0 -0 0 0 -0 0 0 0 0 0 0 0 0 0 0 0 0 0 0 0 0 -0 -0 -0 -0 -0 -0
0 0 0 0 0 0 0 0 0 0 0 0 0 0 0 0 0 0 0 0 0 -0 0 0 0 0 0 0 0 0 0 0 0 0 0 0 0 0 0 0 0 -0 -0 -0
0 0 0 0 0 0 0 0 0 0 0 0 0 0 0 0 0 0 0 0 0 0 0 0 0 0 0 0 0 0 0 0 0 0 0 0 0 0 0 0 0 -0 -0 -0
0 0 0 0 0 0 0 0 0 0 0 0 0 0 0 0 0 0 0 0 0 0 0 0 0 0 0 0 0 -0 0 0 0 0 0 0 0 0 0 0 0 0 -0 -0
0 0 0 0 0 0 0 0 0 0 0 0 0 0 0 0 0 0 0 0 0 0 0 0 0 0 0 0 0 0 0 0 0 0 0 0 -0 -0 0 0 0 0 0 0
0 0 0 0 0 0 0 -0 -0 -0 -0 0 0 0 0 0 0 0 0 0 0 -0 0 0 0 0 0 0 0 0 0 0 0 0 0 0 0 0 -0 0 0 0 0 0
0 0 0 0 0 0 0 -0 -0 -0 -0 -0 -0 -0 0 0 0 0 0 0 0 0 0 0 0 0 0 0 0 0 0 0 0 0 0 0 0 0 -0 -0 -0 -0 -0 0
0 0 0 0 0 0 0 0 -0 -0 0 -0 -0 0 0 0 0 0 0 0 0 0 0 0 0 0 0 0 0 0 0 0 0 0 0 0 0 0 0 0 0 -0 -0 0
0 0 0 -0 0 0 0 0 0 -0 -0 -0 -0 -0 0 0 0 0 0 0 0 0 0 0 0 0 0 0 0 0 0 0 0 0 0 0 0 0 0 0 0 0 -0 0
0 0 0 0 -0 0 0 -0 -0 0 0 -0 -0 -0 -0 0 0 0 0 0 0 0 0 0 0 0 0 0 0 0 0 0 0 0 0 0 0 0 0 0 0 0 0 -0
0 0 0 0 0 0 0 0 -0 -0 -0 -0 -0 -0 -0 -0 0 0 0 0 0 0 0 0 0 0 0 0 0 0 0 0 0 0 0 0 0 0 0 0 0 0 -0 -0
0 0 0 0 0 0 0 -0 -0 -0 -0 -0 -0 -0 -0 0 0 0 0 0 0 0 0 0 0 0 0 0 0 0 0 0 0 0 0 0 0 0 0 0 0 0 0 0
0 0 0 0 0 0 0 -0 -0 -0 -0 -0 -0 -0 -0 0 0 0 0 0 0 0 0 0 0 0 0 0 0 0 0 0 0 0 0 0 0 0 0 0 0 0 0 0
0 0 0 0 0 0 0 0 0 -0 -0 -0 -0 -0 0 -0 -0 0 0 0 0 0 0 -0 -0 0 0 0 0 0 0 0 0 0 0 0 0 0 0 0 0 0 0 0
0 0 0 0 0 0 0 0 0 0 0 0 0 0 0 0 0 0 -0 0 0 0 0 0 -0 -0 -0 -0 -0 -0 -0 -0 0 0 0 0 0 0 0 0 0 0 0 0
0 0 0 0 0 0 0 0 0 0 0 0 0 0 0 0 0 0 0 0 0 0 -0 -0 -0 -0 -0 -0 -0 -0 -0 -0 -0 -0 0 0 0 0 0 0 0 0 0 0
Wind_Speed_500mb
32 37 39 38 38 31 30 31 32 34 38 36 20 21 21 25 30 35 32 23 19 19 18 17 15 9 8 7 5 6 5 9 13 19 16 17 18 19 21 20 18 16 18 14
34 35 37 41 39 42 38 38 42 44 39 34 40 44 40 26 21 25 23 23 20 20 20 18 17 12 18 15 9 7 14 18 19 16 16 25 30 27 19 11 10 12 11 10
34 38 39 34 33 40 41 34 31 39 39 36 32 24 28 28 24 25 22 20 22 21 20 25 25 23 26 23 26 16 19 26 24 17 23 30 34 33 18 10 11 10 11 3
27 32 39 31 39 24 28 46 30 26 31 35 25 34 20 21 32 32 40 33 25 20 18 20 27 24 24 24 24 22 21 21 20 22 28 25 25 27 24 19 20 25 23 9
16 30 38 34 16 26 30 38 38 28 38 40 28 37 23 14 17 20 21 21 20 20 19 26 25 24 20 23 22 21 18 18 19 18 12 18 21 21 26 22 22 17 20 20
12 34 38 14 34 35 11 26 60 75 32 31 33 13 18 13 9 22 8 18 21 23 22 22 25 25 21 22 26 26 22 21 19 16 20 13 18 30 28 29 21 20 14 23
30 28 20 29 36 28 12 13 52 61 66 59 20 4 9 15 13 31 32 27 27 26 28 27 32 24 25 23 26 20 21 17 16 14 9 15 15 6 21 28 26 32 38 34
15 11 9 48 20 10 15 27 38 48 56 68 71 52 48 41 24 27 24 26 28 29 29 30 30 25 25 25 16 19 14 19 19 17 18 13 13 3 15 19 25 15 9 13
6 3 9 11 10 9 17 28 34 40 47 46 57 63 54 17 14 15 20 27 29 31 30 37 34 26 33 22 20 23 21 22 26 20 18 23 22 17 19 17 17 14 13 12
13 12 16 17 2 18 25 28 33 34 32 40 56 55 57 48 11 10 14 44 34 33 35 39 36 32 32 28 34 29 27 26 19 19 21 28 23 22 19 20 20 20 23 26
23 12 36 5 39 44 34 38 37 40 37 36 47 51 52 51 46 41 41 39 40 37 37 39 43 37 37 35 39 37 28 28 30 27 25 25 27 29 28 23 28 25 31 31
15 43 35 45 48 53 55 53 43 36 41 43 44 46 53 51 50 40 29 48 51 45 40 40 46 39 42 44 44 42 41 39 35 37 40 39 42 37 34 33 33 34 26 15
33 49 53 56 53 48 50 56 56 56 47 49 50 49 48 51 47 45 40 32 48 56 46 43 47 44 43 47 46 44 50 42 39 37 37 34 39 39 32 36 37 39 35 31
46 52 56 49 62 59 56 59 53 52 51 49 53 53 52 49 48 43 42 46 46 49 49 47 47 50 49 48 49 45 41 40 38 37 40 40 38 47 38 32 35 41 49 45
49 52 62 71 64 56 55 54 57 55 53 56 48 53 54 46 51 48 42 39 56 45 49 47 48 50 51 52 52 52 48 46 44 44 44 41 41 48 46 44 43 47 43 38
56 55 56 61 63 61 58 59 51 50 47 46 40 48 52 40 46 52 54 43 70 65 44 50 50 50 51 53 54 55 56 55 52 50 45 48 47 47 52 50 51 53 55 55
57 59 64 64 64 65 58 52 50 46 40 40 43 46 43 45 45 50 48 44 51 77 42 50 53 49 50 53 59 60 58 59 58 62 51 48 49 51 53 48 52 53 54 45
51 53 49 52 56 65 49 40 30 27 34 27 32 40 51 47 48 40 44 41 48 47 12 21 40 47 42 50 59 63 61 60 61 62 59 56 54 53 55 54 53 52 52 49
50 53 52 46 53 49 45 46 36 29 28 31 22 11 17 27 13 19 21 30 34 29 10 12 11 35 38 36 30 35 44 71 67 56 63 65 61 57 56 52 59 59 52 52
46 50 51 54 53 43 42 53 52 52 57 61 63 62 61 62 67 65 50 52 50 33 28 28 21 8 15 25 12 22 54 40 48 58 52 58 65 67 69 61 60 55 63 63
39 40 45 53 55 57 56 56 62 66 61 59 62 69 74 73 69 62 63 64 55 46 37 28 26 24 28 33 37 34 32 30 32 34 56 64 59 60 65 68 84 78 51 76
33 36 38 43 49 51 53 58 58 61 65 69 66 64 64 68 68 70 71 66 55 50 47 47 44 39 35 35 35 35 37 38 44 50 39 26 30 44 28 63 57 69 70 56
28 30 32 36 38 42 52 56 56 61 62 60 62 66 70 68 65 68 68 63 65 66 67 64 57 53 51 50 48 44 41 34 27 23 23 26 27 13 34 44 40 52 56 62
25 27 30 30 33 37 42 44 46 49 50 52 59 58 54 54 56 53 53 56 63 61 64 58 57 57 59 59 59 61 63 60 56 49 42 37 36 29 20 14 5 21 27 25
23 28 27 26 29 31 30 30 32 39 39 42 43 43 44 44 46 40 39 43 48 46 48 53 55 53 52 51 53 54 49 52 54 53 53 52 49 47 46 46 44 42 38 37
20 19 21 22 22 24 26 28 35 35 34 36 37 36 36 36 35 35 39 39 39 40 45 51 55 58 60 56 51 49 57 57 52 53 54 55 49 46 44 42 41 38 37 34
16 17 17 22 20 21 26 31 31 31 32 31 33 33 33 33 35 35 35 35 36 37 37 41 53 50 53 56 56 53 47 44 46 46 46 43 44 45 44 42 40 36 37 37
Wind_Direction_500mb
272 278 289 288 283 273 258 259 245 261 271 289 256 217 213 229 210 198 193 195 220 225 228 196 187 204 217 219 233 292 277 280 315 314 328 333 330 332 318 310 312 314 312 286
279 285 282 279 278 278 265 259 271 281 263 256 259 269 267 256 192 197 212 195 228 222 215 210 211 221 221 234 226 226 253 254 261 288 307 315 309 311 294 280 310 315 321 300
255 268 277 273 275 274 272 272 260 256 264 258 263 259 243 226 230 206 210 207 220 223 223 219 214 211 234 246 249 242 245 248 257 269 292 296 288 287 270 256 231 250 267 264
262 266 267 282 297 306 307 296 284 289 279 282 316 313 231 227 233 216 200 199 206 208 215 219 198 202 219 239 248 255 242 252 256 283 289 294 292 282 245 229 224 227 226 221
307 281 272 269 302 5 7 311 319 314 295 288 321 233 258 339 345 180 158 165 185 191 198 196 190 207 220 240 242 216 230 251 270 273 260 308 304 284 246 235 222 213 211 211
211 248 267 344 345 342 293 255 1 356 343 4 351 314 16 338 158 137 221 175 191 189 189 192 199 209 216 217 213 215 240 270 263 245 261 275 283 282 236 215 209 184 158 180
233 267 296 352 348 318 238 332 346 1 357 349 354 320 157 87 209 188 196 188 193 186 187 194 209 224 214 211 211 230 241 245 215 218 242 224 314 323 224 244 238 237 233 229
350 311 252 6 4 26 343 336 348 2 351 347 341 337 244 196 182 190 192 198 194 186 188 202 209 208 203 215 233 234 209 200 210 224 239 233 230 115 109 121 131 129 122 137
17 317 168 48 151 257 326 328 328 333 342 332 329 323 335 324 253 207 187 215 208 201 195 192 198 213 202 212 202 204 200 198 219 229 234 192 220 236 238 228 229 228 222 228
316 188 338 326 187 321 321 319 317 310 300 306 313 326 324 327 328 240 226 244 209 210 203 204 214 201 210 207 197 200 202 206 210 234 224 196 191 211 223 232 227 224 217 224
282 31 338 3 314 318 313 310 297 299 300 299 299 297 305 310 314 306 281 256 261 212 216 211 208 211 205 192 202 208 206 210 213 213 208 209 218 230 237 228 226 231 240 241
315 318 308 299 302 308 307 306 300 295 294 290 292 294 287 296 297 310 322 246 246 231 219 218 219 205 198 196 203 199 208 222 230 225 228 227 229 240 237 249 242 242 266 226
322 320 318 314 312 309 304 303 296 296 289 291 284 283 288 282 284 290 296 266 233 228 214 218 212 209 202 200 203 207 215 217 236 238 230 235 223 227 230 230 238 246 251 237
320 321 314 313 312 305 299 300 299 288 285 284 283 284 277 283 285 282 280 268 249 246 210 212 215 211 210 217 214 212 216 225 226 225 228 229 240 220 220 230 236 246 242 239
333 323 313 311 307 304 302 301 297 292 286 283 278 277 289 275 281 279 277 256 248 252 226 210 213 217 214 214 213 221 226 225 226 220 233 236 235 227 230 232 234 232 245 244
330 330 329 324 316 307 301 300 293 285 284 292 282 280 294 287 284 279 275 276 232 235 246 213 214 219 219 217 218 220 222 224 227 226 231 236 242 242 230 233 239 239 237 237
343 336 338 335 332 323 312 298 291 287 283 281 284 287 284 299 291 288 279 281 231 219 281 226 216 220 223 224 224 223 224 230 229 230 232 230 233 238 243 242 237 241 240 238
354 349 346 347 351 346 346 322 304 295 288 300 303 298 300 297 297 300 299 279 212 204 248 190 209 210 217 225 227 231 228 231 231 228 230 233 236 241 248 249 249 249 246 239
2 5 5 9 25 29 35 32 6 330 316 307 309 346 25 56 115 122 96 138 144 142 63 61 186 207 214 234 237 256 241 231 229 232 233 236 235 240 243 244 245 248 255 249
9 17 23 29 33 34 42 46 52 67 73 73 76 75 73 74 76 75 78 76 63 60 41 18 21 328 262 274 285 241 250 259 248 236 246 238 238 239 243 244 242 240 245 250
16 20 28 36 41 47 49 53 55 57 61 67 67 66 63 62 63 63 60 58 48 45 40 35 13 354 333 318 309 310 310 304 292 250 244 237 251 249 241 251 250 244 258 255
23 28 33 33 35 39 44 47 52 55 54 55 58 62 64 63 61 60 59 58 54 51 44 40 32 18 8 350 335 324 322 318 298 301 330 291 249 245 254 238 238 239 259 278
31 31 39 40 41 44 46 51 51 52 58 60 58 54 55 55 54 56 53 48 50 52 53 52 50 49 48 48 44 38 34 28 19 0 341 320 319 332 260 264 265 259 251 260
39 44 47 51 50 47 44 42 44 48 48 49 50 53 53 51 53 47 47 45 39 42 48 46 48 50 52 52 51 49 50 49 48 46 46 47 52 52 35 13 264 253 256 238
57 55 56 51 45 45 44 45 46 47 51 52 50 48 46 49 54 53 48 45 50 47 44 39 36 42 46 46 48 48 45 46 46 48 50 53 56 63 69 71 74 76 92 111
60 57 51 50 46 43 41 43 48 45 46 49 49 49 50 51 52 50 47 48 44 44 46 40 42 41 40 42 42 42 40 39 41 40 39 40 42 47 53 59 63 67 68 76
55 61 56 55 54 48 53 57 52 47 47 50 52 49 50 50 49 48 48 46 45 45 40 35 38 39 35 34 34 36 40 39 36 36 37 39 39 38 37 39 37 42 52 57
Wind_Speed_850mb
32 37 39 38 38 31 30 31 32 34 38 36 20 21 21 25 30 35 32 23 19 19 18 17 15 9 8 7 5 6 5 9 13 19 16 17 18 19 21 20 18 16 18 14
34 35 37 41 39 42 38 38 42 44 39 34 40 44 40 26 21 25 23 23 20 20 20 18 17 12 18 15 9 7 14 18 19 16 16 25 30 27 19 11 10 12 11 10
34 38 39 34 33 40 41 34 31 39 39 36 32 24 28 28 24 25 22 20 22 21 20 25 25 23 26 23 26 16 19 26 24 17 23 30 34 33 18 10 11 10 11 3
27 32 39 31 39 24 28 46 30 26 31 35 25 34 20 21 32 32 40 33 25 20 18 20 27 24 24 24 24 22 21 21 20 22 28 25 25 27 24 19 20 25 23 9
16 30 38 34 16 26 30 38 38 28 38 40 28 37 23 14 17 20 21 21 20 20 19 26 25 24 20 23 22 21 18 18 19 18 12 18 21 21 26 22 22 17 20 20
12 34 38 14 34 35 11 26 60 75 32 31 33 13 18 13 9 22 8 18 21 23 22 22 25 25 21 22 26 26 22 21 19 16 20 13 18 30 28 29 21 20 14 23
30 28 20 29 36 28 12 13 52 61 66 59 20 4 9 15 13 31 32 27 27 26 28 27 32 24 25 23 26 20 21 17 16 14 9 15 15 6 21 28 26 32 38 34
15 11 9 48 20 10 15 27 38 48 56 68 71 52 48 41 24 27 24 26 28 29 29 30 30 25 25 25 16 19 14 19 19 17 18 13 13 3 15 19 25 15 9 13
6 3 9 11 10 9 17 28 34 40 47 46 57 63 54 17 14 15 20 27 29 31 30 37 34 26 33 22 20 23 21 22 26 20 18 23 22 17 19 17 17 14 13 12
13 12 16 17 2 18 25 28 33 34 32 40 56 55 57 48 11 10 14 44 34 33 35 39 36 32 32 28 34 29 27 26 19 19 21 28 23 22 19 20 20 20 23 26
23 12 36 5 39 44 34 38 37 40 37 36 47 51 52 51 46 41 41 39 40 37 37 39 43 37 37 35 39 37 28 28 30 27 25 25 27 29 28 23 28 25 31 31
15 43 35 45 48 53 55 53 43 36 41 43 44 46 53 51 50 40 29 48 51 45 40 40 46 39 42 44 44 42 41 39 35 37 40 39 42 37 34 33 33 34 26 15
33 49 53 56 53 48 50 56 56 56 47 49 50 49 48 51 47 45 40 32 48 56 46 43 47 44 43 47 46 44 50 42 39 37 37 34 39 39 32 36 37 39 35 31
46 52 56 49 62 59 56 59 53 52 51 49 53 53 52 49 48 43 42 46 46 49 49 47 47 50 49 48 49 45 41 40 38 37 40 40 38 47 38 32 35 41 49 45
49 52 62 71 64 56 55 54 57 55 53 56 48 53 54 46 51 48 42 39 56 45 49 47 48 50 51 52 52 52 48 46 44 44 44 41 41 48 46 44 43 47 43 38
56 55 56 61 63 61 58 59 51 50 47 46 40 48 52 40 46 52 54 43 70 65 44 50 50 50 51 53 54 55 56 55 52 50 45 48 47 47 52 50 51 53 55 55
57 59 64 64 64 65 58 52 50 46 40 40 43 46 43 45 45 50 48 44 51 77 42 50 53 49 50 53 59 60 58 59 58 62 51 48 49 51 53 48 52 53 54 45
51 53 49 52 56 65 49 40 30 27 34 27 32 40 51 47 48 40 44 41 48 47 12 21 40 47 42 50 59 63 61 60 61 62 59 56 54 53 55 54 53 52 52 49
50 53 52 46 53 49 45 46 36 29 28 31 22 11 17 27 13 19 21 30 34 29 10 12 11 35 38 36 30 35 44 71 67 56 63 65 61 57 56 52 59 59 52 52
46 50 51 54 53 43 42 53 52 52 57 61 63 62 61 62 67 65 50 52 50 33 28 28 21 8 15 25 12 22 54 40 48 58 52 58 65 67 69 61 60 55 63 63
39 40 45 53 55 57 56 56 62 66 61 59 62 69 74 73 69 62 63 64 55 46 37 28 26 24 28 33 37 34 32 30 32 34 56 64 59 60 65 68 84 78 51 76
33 36 38 43 49 51 53 58 58 61 65 69 66 64 64 68 68 70 71 66 55 50 47 47 44 39 35 35 35 35 37 38 44 50 39 26 30 44 28 63 57 69 70 56
28 30 32 36 38 42 52 56 56 61 62 60 62 66 70 68 65 68 68 63 65 66 67 64 57 53 51 50 48 44 41 34 27 23 23 26 27 13 34 44 40 52 56 62
25 27 30 30 33 37 42 44 46 49 50 52 59 58 54 54 56 53 53 56 63 61 64 58 57 57 59 59 59 61 63 60 56 49 42 37 36 29 20 14 5 21 27 25
23 28 27 26 29 31 30 30 32 39 39 42 43 43 44 44 46 40 39 43 48 46 48 53 55 53 52 51 53 54 49 52 54 53 53 52 49 47 46 46 44 42 38 37
20 19 21 22 22 24 26 28 35 35 34 36 37 36 36 36 35 35 39 39 39 40 45 51 55 58 60 56 51 49 57 57 52 53 54 55 49 46 44 42 41 38 37 34
16 17 17 22 20 21 26 31 31 31 32 31 33 33 33 33 35 35 35 35 36 37 37 41 53 50 53 56 56 53 47 44 46 46 46 43 44 45 44 42 40 36 37 37
Wind_Direction_850mb
272 278 289 288 283 273 258 259 245 261 271 289 256 217 213 229 210 198 193 195 220 225 228 196 187 204 217 219 233 292 277 280 315 314 328 333 330 332 318 310 312 314 312 286
279 285 282 279 278 278 265 259 271 281 263 256 259 269 267 256 192 197 212 195 228 222 215 210 211 221 221 234 226 226 253 254 261 288 307 315 309 311 294 280 310 315 321 300
255 268 277 273 275 274 272 272 260 256 264 258 263 259 243 226 230 206 210 207 220 223 223 219 214 211 234 246 249 242 245 248 257 269 292 296 288 287 270 256 231 250 267 264
262 266 267 282 297 306 307 296 284 289 279 282 316 313 231 227 233 216 200 199 206 208 215 219 198 202 219 239 248 255 242 252 256 283 289 294 292 282 245 229 224 227 226 221
307 281 272 269 302 5 7 311 319 314 295 288 321 233 258 339 345 180 158 165 185 191 198 196 190 207 220 240 242 216 230 251 270 273 260 308 304 284 246 235 222 213 211 211
211 248 267 344 345 342 293 255 1 356 343 4 351 314 16 338 158 137 221 175 191 189 189 192 199 209 216 217 213 215 240 270 263 245 261 275 283 282 236 215 209 184 158 180
233 267 296 352 348 318 238 332 346 1 357 349 354 320 157 87 209 188 196 188 193 186 187 194 209 224 214 211 211 230 241 245 215 218 242 224 314 323 224 244 238 237 233 229
350 311 252 6 4 26 343 336 348 2 351 347 341 337 244 196 182 190 192 198 194 186 188 202 209 208 203 215 233 234 209 200 210 224 239 233 230 115 109 121 131 129 122 137
17 317 168 48 151 257 326 328 328 333 342 332 329 323 335 324 253 207 187 215 208 201 195 192 198 213 202 212 202 204 200 198 219 229 234 192 220 236 238 228 229 228 222 228
316 188 338 326 187 321 321 319 317 310 300 306 313 326 324 327 328 240 226 244 209 210 203 204 214 201 210 207 197 200 202 206 210 234 224 196 191 211 223 232 227 224 217 224
282 31 338 3 314 318 313 310 297 299 300 299 299 297 305 310 314 306 281 256 261 212 216 211 208 211 205 192 202 208 206 210 213 213 208 209 218 230 237 228 226 231 240 241
315 318 308 299 302 308 307 306 300 295 294 290 292 294 287 296 297 310 322 246 246 231 219 218 219 205 198 196 203 199 208 222 230 225 228 227 229 240 237 249 242 242 266 226
322 320 318 314 312 309 304 303 296 296 289 291 284 283 288 282 284 290 296 266 233 228 214 218 212 209 202 200 203 207 215 217 236 238 230 235 223 227 230 230 238 246 251 237
320 321 314 313 312 305 299 300 299 288 285 284 283 284 277 283 285 282 280 268 249 246 210 212 215 211 210 217 214 212 216 225 226 225 228 229 240 220 220 230 236 246 242 239
333 323 313 311 307 304 302 301 297 292 286 283 278 277 289 275 281 279 277 256 248 252 226 210 213 217 214 214 213 221 226 225 226 220 233 236 235 227 230 232 234 232 245 244
330 330 329 324 316 307 301 300 293 285 284 292 282 280 294 287 284 279 275 276 232 235 246 213 214 219 219 217 218 220 222 224 227 226 231 236 242 242 230 233 239 239 237 237
343 336 338 335 332 323 312 298 291 287 283 281 284 287 284 299 291 288 279 281 231 219 281 226 216 220 223 224 224 223 224 230 229 230 232 230 233 238 243 242 237 241 240 238
354 349 346 347 351 346 346 322 304 295 288 300 303 298 300 297 297 300 299 279 212 204 248 190 209 210 217 225 227 231 228 231 231 228 230 233 236 241 248 249 249 249 246 239
2 5 5 9 25 29 35 32 6 330 316 307 309 346 25 56 115 122 96 138 144 142 63 61 186 207 214 234 237 256 241 231 229 232 233 236 235 240 243 244 245 248 255 249
9 17 23 29 33 34 42 46 52 67 73 73 76 75 73 74 76 75 78 76 63 60 41 18 21 328 262 274 285 241 250 259 248 236 246 238 238 239 243 244 242 240 245 250
16 20 28 36 41 47 49 53 55 57 61 67 67 66 63 62 63 63 60 58 48 45 40 35 13 354 333 318 309 310 310 304 292 250 244 237 251 249 241 251 250 244 258 255
23 28 33 33 35 39 44 47 52 55 54 55 58 62 64 63 61 60 59 58 54 51 44 40 32 18 8 350 335 324 322 318 298 301 330 291 249 245 254 238 238 239 259 278
31 31 39 40 41 44 46 51 51 52 58 60 58 54 55 55 54 56 53 48 50 52 53 52 50 49 48 48 44 38 34 28 19 0 341 320 319 332 260 264 265 259 251 260
39 44 47 51 50 47 44 42 44 48 48 49 50 53 53 51 53 47 47 45 39 42 48 46 48 50 52 52 51 49 50 49 48 46 46 47 52 52 35 13 264 253 256 238
57 55 56 51 45 45 44 45 46 47 51 52 50 48 46 49 54 53 48 45 50 47 44 39 36 42 46 46 48 48 45 46 46 48 50 53 56 63 69 71 74 76 92 111
60 57 51 50 46 43 41 43 48 45 46 49 49 49 50 51 52 50 47 48 44 44 46 40 42 41 40 42 42 42 40 39 41 40 39 40 42 47 53 59 63 67 68 76
55 61 56 55 54 48 53 57 52 47 47 50 52 49 50 50 49 48 48 46 45 45 40 35 38 39 35 34 34 36 40 39 36 36 37 39 39 38 37 39 37 42 52 57